Content
SEND FEEDBACK

Daily
Averages
Monthly
Summary
United States of America

MERIZO, GUAM


Home > North America > United States > Guam
Elevation: 3 meters     Latitude: 13 14N     Longitude: 144 39E

WEATHER
 
SELECT A DAY
Number of Records: 356,513;   Date Range: 1/1/95 - 12/18/14
 
SHARE

PRINT THIS DATA

[ ← Previous Day ]
WEATHER ALMANAC - 18 JULY, 2013
[ Next Day → ]
[ °F ]   °C
Weather ElementAverageHighLow
Temperature28.1 °C30.1 °C (10:55 am)25.9 °C (1:55 am)
Dewpoint26.5 °C28 °C (10:01 am)21.2 °C (3:55 am)
Humidity91.2 %100 % (8:13 pm)73 % (3:55 am)
Barometer1008.5 hPa1009.8 hPa (9:55 pm)1007.5 hPa (3:23 am)
Wind Speed14 km/h22.2 km/h (2:55 pm)
Weather ElementAverage
Visibility16.1 km
Wind DirectionENE (82.4 °)

Weather ElementTotal
Precipitation0.25 mm
Cooling Degree Days9.7 (Base 18.3)
Growing Degree Days18 (Base 10)
Averaged from 54 records on 18 July, 2013
WEATHER CONDITIONS BREAKOUT
WIND DIRECTION BREAKOUT
WEATHER BY HOUR - 18 JULY, 2013
[ °F ]   °C
Local TimeTemperatureDewpointHumidityBarometerVisibilityWind DirectionWind SpeedGust SpeedPrecipitationEventsConditions
1:40 AM27 °C26 °C94 %1008.5 hPa16.1 kmEast (80°)14.8 km/hRainLight Rain
1:53 AM26 °C25 °C94 %1008.5 hPa16.1 kmEast (80°)11.1 km/hScattered Clouds
1:55 AM25.9 °C24.9 °C94 %1008.5 hPa16.1 kmEast (80°)11.1 km/h0 mmScattered Clouds
2:55 AM26.3 °C25.5 °C95 %1007.8 hPa16.1 kmNE (50°)11.1 km/hScattered Clouds
2:56 AM26 °C25 °C94 %1007.8 hPa16.1 kmNE (50°)11.1 km/hMostly Cloudy
3:03 AM27 °C25 °C89 %1007.8 hPa16.1 kmENE (60°)13 km/hMostly Cloudy
3:07 AM26 °C25 °C94 %1007.8 hPa16.1 kmENE (60°)14.8 km/hMostly Cloudy
3:23 AM26 °C25 °C94 %1007.5 hPa16.1 kmEast (90°)13 km/hScattered Clouds
3:55 AM26.4 °C21.2 °C73 %1007.5 hPa16.1 kmEast (90°)11.1 km/hPartly Cloudy
4:55 AM26.5 °C24.5 °C89 %1007.5 hPa16.1 kmEast (100°)9.3 km/hPartly Cloudy
5:55 AM26.5 °C25.4 °C94 %1007.8 hPa16.1 kmEast (90°)11.1 km/hScattered Clouds
6:24 AM27 °C25 °C89 %1008.1 hPa16.1 kmESE (110°)11.1 km/hMostly Cloudy
6:32 AM27 °C26 °C94 %1008.1 hPa16.1 kmEast (90°)14.8 km/hScattered Clouds
6:55 AM27 °C25.2 °C90 %1008.5 hPa16.1 kmEast (90°)14.8 km/hPartly Cloudy
7:55 AM28.5 °C26.3 °C88 %1008.8 hPa16.1 kmEast (90°)16.7 km/hClear
8:43 AM29 °C27 °C89 %1009.1 hPa16.1 kmEast (100°)13 km/hMostly Cloudy
8:49 AM29 °C27 °C89 %1009.1 hPa16.1 kmEast (80°)16.7 km/hMostly Cloudy
8:55 AM29.3 °C26.9 °C87 %1009.5 hPa16.1 kmEast (100°)14.8 km/hScattered Clouds
9:00 AM29 °C27 °C89 %1009.5 hPa16.1 kmEast (100°)14.8 km/hMostly Cloudy
9:06 AM29 °C27 °C89 %1009.5 hPa16.1 kmEast (90°)18.5 km/hMostly Cloudy
9:54 AM30 °C27 °C84 %1009.5 hPa16.1 kmEast (90°)16.7 km/hMostly Cloudy
9:55 AM29.7 °C27.4 °C87 %1009.5 hPa16.1 kmEast (100°)14.8 km/hMostly Cloudy
10:01 AM30 °C28 °C89 %1009.5 hPa16.1 kmENE (70°)16.7 km/hScattered Clouds
10:55 AM30.1 °C27.6 °C86 %1009.1 hPa16.1 kmESE (110°)11.1 km/hScattered Clouds
11:18 AM30 °C28 °C89 %1009.1 hPa16.1 kmESE (110°)13 km/hMostly Cloudy
11:55 AM30 °C27.9 °C88 %1009.1 hPa16.1 kmENE (70°)18.5 km/hMostly Cloudy
11:56 AM30 °C28 °C89 %1009.1 hPa16.1 kmEast (80°)20.4 km/hScattered Clouds
11:57 AM30 °C28 °C89 %1009.1 hPa16.1 kmEast (80°)20.4 km/hMostly Cloudy
12:01 PM30 °C28 °C89 %1009.1 hPa16.1 kmEast (100°)14.8 km/hScattered Clouds
12:19 PM29 °C28 °C94 %1008.8 hPa16.1 kmEast (90°)14.8 km/hMostly Cloudy
12:21 PM29 °C28 °C94 %1008.8 hPa16.1 kmEast (80°)18.5 km/hMostly Cloudy
12:55 PM29.8 °C27.6 °C88 %1008.5 hPa16.1 kmENE (60°)16.7 km/hMostly Cloudy
1:02 PM30 °C28 °C89 %1008.5 hPa16.1 kmEast (100°)14.8 km/hMostly Cloudy
1:40 PM29 °C27 °C89 %1008.1 hPa16.1 kmESE (110°)11.1 km/hMostly Cloudy
1:45 PM29 °C27 °C89 %1008.1 hPa16.1 kmEast (100°)13 km/hMostly Cloudy
1:47 PM29 °C27 °C89 %1008.1 hPa16.1 kmEast (100°)13 km/hMostly Cloudy
1:55 PM29.3 °C27.6 °C90 %1007.8 hPa16.1 kmEast (100°)14.8 km/hScattered Clouds
1:57 PM29 °C28 °C94 %1007.8 hPa16.1 kmEast (90°)13 km/hMostly Cloudy
2:20 PM28 °C27 °C94 %1007.8 hPa16.1 kmEast (80°)18.5 km/hMostly Cloudy
2:31 PM29 °C27 °C89 %1007.8 hPa16.1 kmENE (70°)16.7 km/hMostly Cloudy
2:47 PM29 °C28 °C94 %1007.8 hPa16.1 kmEast (80°)18.5 km/hRainLight Rain
2:55 PM28.4 °C27 °C92 %1007.8 hPa16.1 kmEast (100°)22.2 km/h0 mmRainLight Rain
3:17 PM27 °C26 °C94 %1007.8 hPa16.1 kmEast (80°)14.8 km/hMostly Cloudy
3:55 PM27.4 °C26.9 °C97 %1007.5 hPa16.1 kmENE (70°)9.3 km/h0.25 mmClear
4:55 PM27.7 °C26.7 °C94 %1007.5 hPa16.1 kmNE (50°)11.1 km/hClear
5:55 PM27.6 °C26.1 °C91 %1008.1 hPa16.1 kmENE (60°)11.1 km/hClear
6:55 PM27.2 °C26 °C93 %1008.5 hPa16.1 kmNE (50°)9.3 km/hClear
7:55 PM27.1 °C26.6 °C97 %1008.8 hPa16.1 kmNE (50°)13 km/hPartly Cloudy
8:13 PM27 °C27 °C100 %1008.8 hPa16.1 kmEast (80°)11.1 km/hRainLight Rain
8:25 PM26 °C26 °C100 %1008.8 hPa16.1 kmEast (80°)7.4 km/hScattered Clouds
8:55 PM26.5 °C26.1 °C98 %1009.5 hPa16.1 kmENE (70°)13 km/h0 mmClear
9:55 PM27 °C25.9 °C94 %1009.8 hPa16.1 kmEast (80°)13 km/hScattered Clouds
10:55 PM26.8 °C25.6 °C93 %1009.5 hPa16.1 kmENE (60°)13 km/hClear
11:55 PM26.7 °C25.4 °C93 %1009.1 hPa16.1 kmENE (70°)13 km/hScattered Clouds
Hourly data recorded from PGUA, located 0 kilometers away from Merizo, Guam







STORIES FROM OUR PARTNERS